www.pogodaiklimat.ru

Архив погоды в Букараманге (Колумбия)

Время
(UTC), дата
01 9.07
02 9.07
03 9.07
04 9.07
05 9.07
06 9.07
07 9.07
08 9.07
09 9.07
10 9.07
11 9.07
12 9.07
13 9.07
14 9.07
15 9.07
16 9.07
17 9.07
18 9.07
19 9.07
20 9.07
21 9.07
22 9.07
23 9.07
00 10.07
01 10.07
02 10.07
03 10.07
04 10.07
05 10.07
06 10.07
07 10.07
08 10.07
09 10.07
10 10.07
11 10.07
12 10.07
13 10.07
14 10.07
15 10.07
16 10.07
17 10.07
18 10.07
19 10.07
20 10.07
21 10.07
22 10.07
23 10.07
00 11.07
01 11.07
02 11.07
03 11.07
04 11.07
05 11.07
06 11.07
07 11.07
08 11.07
09 11.07
10 11.07
11 11.07
12 11.07
13 11.07
14 11.07
15 11.07
16 11.07
17 11.07
18 11.07
19 11.07
20 11.07
21 11.07
22 11.07
23 11.07
00 12.07
01 12.07
02 12.07
03 12.07
04 12.07
05 12.07
06 12.07
07 12.07
08 12.07
09 12.07
10 12.07
11 12.07
12 12.07
13 12.07
14 12.07
15 12.07
16 12.07
17 12.07
18 12.07
19 12.07
20 12.07
21 12.07
22 12.07
23 12.07
00 13.07
01 13.07
02 13.07
03 13.07
04 13.07
05 13.07
06 13.07
07 13.07
08 13.07
09 13.07
10 13.07
11 13.07
12 13.07
13 13.07
14 13.07
15 13.07
16 13.07
17 13.07
18 13.07
19 13.07
20 13.07
21 13.07
22 13.07
23 13.07
00 14.07
01 14.07
02 14.07
03 14.07
04 14.07
05 14.07
06 14.07
07 14.07
08 14.07
09 14.07
10 14.07
11 14.07
12 14.07
13 14.07
14 14.07
15 14.07
16 14.07
17 14.07
18 14.07
19 14.07
20 14.07
21 14.07
22 14.07
23 14.07
00 15.07
01 15.07
02 15.07
03 15.07
04 15.07
05 15.07
06 15.07
07 15.07
08 15.07
09 15.07
10 15.07
11 15.07
12 15.07
13 15.07
14 15.07
15 15.07
16 15.07
17 15.07
18 15.07
19 15.07
20 15.07
21 15.07
22 15.07
23 15.07
00 16.07
01 16.07
02 16.07
23 30.07
Ветер
(напр.,м/с)
Видим. Явления Облачность Т
(С)
Тd
(С)
f
(%)
Тe
(С)
Тes
(С)
Комфортность P
(гПа)
Po
(гПа)
Тmin
(С)
Tmax
(С)
R
(мм)
R24
(мм)
S
(см)
СЗ 1 10 км 5/5 510 м
[Ac]
+20.0 +19.0 94 +24 +24 комфорт 1015.0 883.4
Ю 2 н/о ясно +20.0 +18.0 88 +24 +24 комфорт 1016.0 884.2
Ю 2 15 км мгла 6/4 500 м
[Cu Sc Ac trans Ci fib]
+21.4 +18.6 88 +26 +26 душно 1016.0 883.2
Ю 2 10 км 5/5 510 м
[Ac]
+22.0 +18.0 78 +27 +27 душно 1016.0 885.1
Ю 4 н/о 8/8 1410 м +22.0 +18.0 78 +27 +27 душно 1016.0 885.1
Ю 4 н/о 8/8 1320 м +21.0 +19.0 88 +26 +26 душно 1016.0 884.7
Ю 4 н/о ясно +21.0 +19.0 88 +26 +26 душно 1015.0 883.8
ЮВ 4 н/о 2/2 30 м
[Frnb]
+21.0 +19.0 88 +26 +26 душно 1014.0 883.0
Ю 6 н/о ясно +20.0 +19.0 94 +23 +23 комфорт 1014.0 882.5
Ю 7 н/о ясно +20.0 +19.0 94 +23 +23 комфорт 1014.0 882.5
Ю 6 10 км 2/2 450 м +20.0 +18.0 88 +23 +23 комфорт 1014.0 882.5
ЮВ 4 18 км мгла 4/1 450 м
[Cu hum Ci fib]
+20.2 +19.0 94 +23 +25 комфорт 1015.0 881.9 +19.2 9
Ю 7 10 км 2/2 450 м +21.0 +19.0 88 +25 +27 комфорт 1015.0 883.8
Ю 4 10 км 2/2 450 м +24.0 +18.0 69 +28 +34 душно 1015.0 885.0
С 2 18 км мгла 8/4 450 м
[Cu hum Ac trans Ci fib]
+25.6 +19.7 70 +32 +40 очень душно 1015.0 882.4
СЗ 2 10 км 5/5 450 м +26.0 +21.0 74 +33 +43 очень душно 1015.0 886.0
нст 2 10 км 5/5 510 м +27.0 +21.0 70 +34 +44 очень душно 1015.0 886.4
СЗ 4 18 км мгла 8/5 500 м
[Cu med, cong Ac und Ci fib]
+27.7 +20.3 62 +34 +41 очень душно 1014.0 881.1
штиль 0 10 км 5/5 510 м 0.0 0.0 100 -1 +9 1013.0 871.8
СЗ 3 10 км 5/5 510 м
[Ac]
+25.0 +21.0 78 +31 +36 очень душно 1012.0 883.0
СЗ 3 18 км мгла 5/4 600 м
[Cu med, cong Ac und Ci fib]
+25.7 +20.9 74 +33 +35 очень душно 1012.0 879.2
СЗ 3 10 км 5/5 510 м +25.0 +21.0 78 +31 +32 очень душно 1012.0 883.0
СЗ 2 10 км 5/5 450 м +24.0 +20.0 78 +29 +29 душно 1012.0 882.5
СЗ 2 10 км 5/5 360 м +22.0 +21.0 94 +28 +28 душно 1013.0 882.6
С 3 10 км 5/5 360 м +22.0 +20.0 88 +28 +28 душно 1014.0 883.4
СВ 2 10 км 5/5 300 м +23.0 +17.0 69 +28 +28 душно 1015.0 884.6
С 2 14 км зарница 9/3 360 м
[St Ac As Cs]
+22.2 +19.6 88 +28 +28 душно 1015.0 882.1
нст 1 10 км ливневой дождь 8/8 360 м
[Cb]
+23.0 +20.0 83 +30 +30 очень душно 1016.0 885.6
нст 1 н/о 10/10 1470 м +21.0 +19.0 88 +27 +27 душно 1015.0 883.8
СЗ 2 н/о слаб. ливневой дождь 10/10 1680 м
[Cb]
+20.0 +19.0 94 +24 +24 комфорт 1015.0 883.4
нст 1 н/о 10/10 1620 м +21.0 +17.0 78 +26 +26 душно 1015.0 883.7
нст 1 н/о 8/0 5400 м
[Ac]
+20.0 +17.0 83 +24 +24 комфорт 1013.0 881.6
Ю 1 н/о 2/0 3000 м
[Ac]
+21.0 +17.0 78 +26 +26 душно 1014.0 882.8
нст 2 н/о ясно +21.0 +18.0 83 +26 +26 душно 1014.0 882.9
Ю 2 10 км 2/2 300 м +20.0 +18.0 88 +24 +24 комфорт 1015.0 883.3
Ю 2 15 км дымка 8/3 300 м
[Sc Ci fib]
+20.6 +19.1 88 +26 +28 душно 1015.0 881.8 +19.4
Ю 3 10 км 2/2 300 м +21.0 +19.0 88 +26 +30 душно 1015.0 883.8
Ю 3 10 км 2/2 450 м +23.0 +19.0 78 +29 +37 очень душно 1015.0 884.7
ЮВ 3 15 км мгла 8/3 600 м
[Cu hum Ci fib]
+25.5 +17.9 61 +30 +41 душно 1015.0 881.8
С 4 10 км 5/5 600 м +27.0 +20.0 66 +33 +40 очень душно 1015.0 886.4
СЗ 2 10 км 5/5 600 м +28.0 +21.0 66 +35 +46 очень душно 1014.0 886.0
СЗ 3 15 км мгла 9/6 500 м
[Cu Sc Cs]
+28.1 +21.4 66 +35 +38 очень душно 1013.0 880.1
СЗ 3 10 км 5/5 510 м +28.0 +21.0 66 +35 +42 очень душно 1012.0 884.2
СЗ 3 10 км 5/5 510 м +27.0 +21.0 70 +34 +38 очень душно 1011.0 883.0
СЗ 3 15 км мгла 9/8 450 м
[Cu Sc Ac As Cs]
+26.0 +21.0 74 +33 +35 очень душно 1011.0 878.3
СЗ 2 10 км 5/5 450 м +25.0 +21.0 78 +31 +32 очень душно 1011.0 882.1
СЗ 2 10 км 5/5 450 м +23.0 +21.0 89 +31 +31 очень душно 1012.0 882.2
СЗ 2 15 км мгла 9/4 450 м
[Cu Sc Ac As Cs]
+22.0 +20.4 88 +28 +28 душно 1013.0 879.7 +28.4
СВ 3 10 км 5/5 450 м
[Ac]
+23.0 +19.0 78 +29 +29 очень душно 1014.0 883.8
СВ 2 10 км 5/5 450 м
[Ac]
+23.0 +18.0 73 +28 +28 душно 1015.0 884.6
СВ 2 15 км мгла 6/3 450 м
[Cu Sc Ac trans]
+22.6 +18.2 73 +28 +28 душно 1015.0 882.0
нст 1 10 км 5/2 450 м
[Ac]
+22.0 +18.0 78 +27 +27 душно 1015.0 884.2
нст 1 10 км 5/2 450 м
[Ac]
+21.0 +18.0 83 +26 +26 душно 1015.0 883.8
В 2 н/о ясно +21.0 +19.0 88 +26 +26 душно 1015.0 883.8
нст 1 н/о ясно +21.0 +18.0 83 +26 +26 душно 1014.0 882.9
Ю 3 н/о ясно +20.0 +18.0 88 +23 +23 комфорт 1014.0 882.5
нст 2 н/о ясно +20.0 +18.0 88 +24 +24 комфорт 1014.0 882.5
Ю 2 10 км 2/2 300 м +20.0 +18.0 88 +24 +24 комфорт 1015.0 883.3
Ю 2 10 км 2/2 300 м +20.0 +18.0 88 +24 +24 комфорт 1014.0 882.5
Ю 3 15 км мгла 8/1 450 м
[Sc Ci fib]
+20.1 +18.2 88 +23 +25 комфорт 1015.0 881.6 +19.5
Ю 4 10 км 2/2 450 м +21.0 +18.0 83 +25 +29 комфорт 1015.0 883.8
Ю 4 10 км 2/2 450 м +23.0 +18.0 73 +28 +35 душно 1016.0 885.5
Ю 4 15 км мгла 10/1 600 м
[Cu hum Ci fib]
+24.5 +18.7 69 +30 +39 очень душно 1016.0 882.6
С 3 10 км 8/8 600 м +26.0 +20.0 70 +32 +35 очень душно 1015.0 886.0
СЗ 3 10 км 5/5 600 м +28.0 +19.0 58 +33 +42 очень душно 1015.0 886.7
СЗ 4 15 км мгла 9/5 600 м
[Cu Sc Ci fib]
+28.5 +19.7 58 +35 +42 очень душно 1014.0 881.4
СЗ 3 10 км 5/5 450 м +28.0 +21.0 66 +35 +42 очень душно 1014.0 886.0
СЗ 4 н/о 8/8 420 м +26.0 +21.0 74 +33 +34 очень душно 1013.0 884.3
СЗ 4 15 км мгла 9/4 450 м
[Cu Sc Ci fib]
+25.7 +20.7 74 +33 +34 очень душно 1013.0 880.3
СЗ 3 10 км 5/5 450 м +25.0 +20.0 74 +31 +31 очень душно 1013.0 883.8
СЗ 2 10 км 2/2 450 м +24.0 +21.0 83 +30 +30 очень душно 1014.0 884.3
СЗ 2 15 км мгла 6/3 450 м
[Cu Sc Ac trans Ci fib]
+21.9 +20.6 94 +28 +28 душно 1015.0 881.9 +28.9
СЗ 2 10 км 2/2 390 м +21.0 +20.0 94 +27 +27 душно 1016.0 884.8
нст 1 10 км 5/2 360 м
[Ac]
+21.0 +21.0 100 +28 +28 очень душно 1017.0 885.7
нст 1 14 км мгла 10/3 360 м
[Cu Sc Ac As Cs]
+21.9 +20.4 88 +28 +28 душно 1017.0 884.1
С 2 10 км туман поземный 8/2 300 м
[Ac]
+21.0 +20.0 94 +27 +27 душно 1017.0 885.6 0.0
нст 1 н/о 8/8 270 м +21.0 +21.0 100 +28 +28 очень душно 1017.0 885.7
СВ 2 н/о 2/2 420 м +21.0 +18.0 83 +26 +26 душно 1017.0 885.5
СВ 2 н/о ясно +21.0 +17.0 78 +26 +26 душно 1016.0 884.6
ЮВ 2 н/о ясно +21.0 +17.0 78 +26 +26 душно 1016.0 884.6
нст 1 н/о ясно +20.0 +18.0 88 +24 +24 комфорт 1016.0 884.2
нст 1 н/о ясно +20.0 +18.0 88 +24 +24 комфорт 1016.0 884.2
Ю 3 10 км 5/2 360 м
[Ac]
+20.0 +19.0 94 +24 +24 комфорт 1017.0 885.1
З 2 15 км мгла 9/3 450 м
[Cu Sc Ac As Cs]
+20.6 +19.3 88 +26 +28 душно 1017.0 884.1 +19.6
ЮВ 2 10 км 2/2 450 м +22.0 +19.0 83 +27 +32 душно 1017.0 886.0
Ю 2 10 км 2/2 450 м +23.0 +20.0 83 +30 +39 очень душно 1018.0 887.3
нст 1 15 км мгла 9/5 450 м
[Cu Sc Cs]
+25.1 +20.6 78 +31 +41 очень душно 1018.0 884.6
СЗ 4 10 км 8/8 450 м +24.0 +20.0 78 +29 +32 душно 1018.0 887.8
СЗ 2 10 км 5/5 300 м +24.0 +21.0 83 +30 +41 очень душно 1018.0 887.8
СЗ 2 10 км осадки на расстоянии 10/8 300 м
[Cu Sc Ac As]
+23.2 +20.0 83 +30 +39 очень душно 1017.0 883.9
С 2 10 км слаб. морось 8/8 450 м
[Ac St]
+23.0 +21.0 89 +31 +34 очень душно 1016.0 885.7
штиль 0 10 км ливневой дождь 8/8 450 м
[Ac Cb]
+25.0 +20.0 74 +31 +33 очень душно 1016.0 886.4
СВ 2 12 км мгла {морось} 10/5 450 м
[Cu Sc Ac As]
+23.1 +20.6 89 +31 +32 очень душно 1016.0 882.6
штиль 0 10 км 8/5 450 м
[Ac]
+24.0 +21.0 83 +30 +31 очень душно 1016.0 886.1
С 2 10 км 8/5 450 м
[Ac]
+23.0 +21.0 89 +31 +31 очень душно 1016.0 885.7
СЗ 2 15 км дымка 10/4 300 м
[Cu Sc Ac As]
+21.5 +20.7 94 +28 +28 очень душно 1016.0 883.2 +25.4 0.1
ЮЗ 2 10 км 8/5 300 м
[Ac]
+22.0 +21.0 94 +28 +28 душно 1017.0 886.1
Ю 2 10 км 5/2 300 м
[Ac]
+22.0 +20.0 88 +28 +28 душно 1017.0 886.1
штиль 0 15 км дымка 6/1 300 м
[Cu hum Ac As]
+21.4 +20.2 94 +26 +26 душно 1018.0 885.0
штиль 0 10 км 8/2 300 м
[Ac]
+22.0 +19.0 83 +27 +27 душно 1018.0 886.9
нст 1 н/о 5/5 720 м +21.0 +18.0 83 +26 +26 душно 1018.0 886.4
нст 1 н/о ясно +20.0 +19.0 94 +24 +24 комфорт 1017.0 885.1
нст 1 н/о 10/0 4200 м
[Ac]
+21.0 +18.0 83 +26 +26 душно 1017.0 885.5
нст 1 н/о 5/0 3900 м
[Ac]
+20.0 +18.0 88 +24 +24 комфорт 1017.0 885.1
нст 1 н/о ясно +20.0 +19.0 94 +24 +24 комфорт 1017.0 885.1
нст 1 н/о 8/8 90 м
[St]
+19.0 +18.0 94 +22 +22 комфорт 1017.0 884.7
Ю 2 10 км туман, небо видно 5/5 450 м
[Ac]
+20.0 +19.0 94 +24 +24 комфорт 1018.0 886.0
Ю 2 12 км мгла 8/4 500 м
[Cu Sc Ac As Ci fib]
+19.6 +18.3 88 +24 +25 комфорт 1018.0 884.7 +19.1 0.1
Ю 3 10 км 5/5 510 м
[Ac]
+20.0 +18.0 88 +23 +26 комфорт 1019.0 886.8
Ю 2 10 км 8/5 510 м
[Ac]
+21.0 +19.0 88 +26 +30 душно 1019.0 887.3
ЮВ 2 15 км мгла 8/4 500 м
[Cu Sc Ac trans Ci fib]
+23.1 +19.2 78 +29 +37 очень душно 1019.0 885.1
В 2 10 км 5/5 510 м
[Ac]
+24.0 +19.0 74 +29 +39 душно 1018.0 887.7
С 2 10 км 8/5 510 м
[Ac]
+26.0 +20.0 70 +32 +38 очень душно 1017.0 887.7
СЗ 3 15 км мгла 9/4 600 м
[Cu Sc Ac As Ci fib]
+26.8 +20.2 66 +33 +38 очень душно 1016.0 883.0
С 4 10 км 5/2 600 м
[Ac]
+27.0 +19.0 62 +32 +38 очень душно 1015.0 886.3
СЗ 4 10 км 5/2 600 м
[Ac]
+27.0 +19.0 62 +32 +36 очень душно 1015.0 886.3
СЗ 3 15 км мгла 8/3 450 м
[Cu hum Ac As]
+26.4 +20.0 70 +32 +34 очень душно 1015.0 881.6
СЗ 3 10 км ливневой дождь 8/5 450 м
[Ac Cb]
+25.0 +20.0 74 +31 +31 очень душно 1015.0 885.6
СЗ 2 10 км 8/5 450 м
[Ac]
+23.0 +20.0 83 +30 +30 очень душно 1016.0 885.6
С 2 15 км мгла 6/3 450 м
[Cu Sc Ac As]
+22.2 +20.1 88 +28 +28 душно 1016.0 882.5 +28.2
нст 1 10 км 8/2 450 м
[Ac]
+21.0 +20.0 94 +27 +27 душно 1016.0 884.8
С 2 10 км 8/2 450 м
[Ac]
+20.0 +19.0 94 +24 +24 комфорт 1017.0 885.1
СВ 2 15 км мгла 9/3 450 м
[Cu Sc Ac As]
+22.4 +18.7 83 +27 +27 душно 1017.0 884.3
нст 1 10 км 5/2 450 м
[Ac]
+21.0 +19.0 88 +27 +27 душно 1018.0 886.4
В 2 н/о 2/0 3300 м
[Ac]
+21.0 +19.0 88 +26 +26 душно 1018.0 886.4
ЮВ 1 н/о ясно +20.0 +19.0 94 +24 +24 комфорт 1017.0 885.1
ЮВ 1 н/о ясно +20.0 +19.0 94 +24 +24 комфорт 1017.0 885.1
нст 1 н/о ясно +20.0 +20.0 100 +25 +25 комфорт 1017.0 885.2
нст 1 н/о 2/2 990 м +20.0 +19.0 94 +24 +24 комфорт 1017.0 885.1
Ю 2 н/о ясно +20.0 +19.0 94 +24 +24 комфорт 1018.0 886.0
Ю 2 10 км 5/2 450 м
[Ac]
+20.0 +19.0 94 +24 +24 комфорт 1018.0 886.0
ЮВ 2 15 км мгла 8/1 450 м
[Cu hum Ac trans Cs]
+21.2 +19.6 94 +27 +28 душно 1018.0 884.3 +19.4
Ю 2 10 км 5/2 450 м
[Ac]
+22.0 +19.0 83 +27 +31 душно 1018.0 886.9
Ю 3 10 км 5/5 450 м +24.0 +19.0 74 +29 +34 душно 1018.0 887.7
Ю 3 15 км мгла 9/3 450 м
[Cu hum Ac trans Cs]
+24.9 +17.6 65 +29 +37 душно 1017.0 884.1
нст 1 10 км 8/2 450 м
[Ac]
+25.0 +18.0 65 +29 +38 душно 1017.0 887.2
ЮВ 2 10 км 5/5 510 м
[Ac]
+26.0 +18.0 61 +30 +41 душно 1017.0 887.6
В 2 15 км мгла 8/4 500 м
[Cu med, cong Ac trans Ci fib]
+26.6 +17.6 58 +32 +41 очень душно 1016.0 882.5
С 2 10 км 5/5 510 м
[Ac]
+28.0 +18.0 55 +33 +40 очень душно 1015.0 886.7
СЗ 2 10 км ливневой дождь 5/5 510 м
[Ac Cb]
+27.0 +21.0 70 +34 +39 очень душно 1014.0 885.6
СЗ 2 12 км осадки на расстоянии 10/5 450 м
[Cu Sc Ac As]
+25.0 +21.7 83 +32 +35 очень душно 1014.0 880.7
СЗ 2 10 км 8/5 360 м
[Ac]
+25.0 +22.0 83 +32 +33 очень душно 1014.0 884.8
СЗ 2 10 км 8/5 300 м
[Ac]
+24.0 +22.0 89 +31 +31 очень душно 1015.0 885.3
СЗ 2 10 км мгла 9/4 360 м
[Cu Sc Ac As]
+22.8 +22.1 94 +31 +31 очень душно 1015.0 882.1 +28.6
штиль 0 10 км 5/5 450 м
[Ac]
+22.0 +22.0 100 +29 +29 очень душно 1015.0 884.5
штиль 0 10 км 5/5 450 м
[Ac]
+22.0 +22.0 100 +29 +29 очень душно 1015.0 884.5
штиль 0 12 км мгла 6/4 500 м
[Cu Sc As trans Ci fib]
+22.4 +21.7 100 +29 +29 очень душно 1016.0 882.4
СВ 2 10 км 5/5 510 м +23.0 +19.0 78 +29 +29 очень душно 1016.0 885.5
СВ 2 н/о 8/8 600 м +22.0 +19.0 83 +27 +27 душно 1016.0 885.1
СВ 2 н/о 10/10 780 м +22.0 +18.0 78 +27 +27 душно 1016.0 885.1
нст 1 н/о 8/2 840 м
[Ac]
+22.0 +18.0 78 +27 +27 душно 1015.0 884.2
Ю 1 н/о 8/8 1110 м
[Ac]
+22.0 +19.0 83 +27 +27 душно 1015.0 884.3
нст 1 н/о 8/0 2130 м
[Ac]
+22.0 +18.0 78 +27 +27 душно 1015.0 884.2
ЮВ 2 н/о 10/10 990 м +21.0 +18.0 83 +26 +26 душно 1016.0 884.6
Ю 4 10 км 8/8 450 м +21.0 +19.0 88 +26 +26 душно 1016.0 884.7
Ю 5 15 км мгла 6/6 450 м
[Cu Sc]
+21.7 +19.4 83 +27 +28 душно 1017.0 883.4 +20.4
Ю 6 10 км 2/2 450 м +23.0 +19.0 78 +29 +31 очень душно 1017.0 886.4
ЮВ 3 10 км 2/2 600 м +25.0 +19.0 69 +30 +38 душно 1017.0 887.2
ЮВ 3 15 км мгла 3/3 600 м
[Cu hum Ac trans Ci fib]
+26.2 +18.9 65 +31 +42 очень душно 1017.0 883.8
СЗ 2 10 км 5/5 450 м +28.0 +18.0 55 +33 +43 очень душно 1017.0 888.4
З 2 10 км 5/5 510 м +30.0 +21.0 59 +38 +48 очень душно 1016.0 888.5
СЗ 2 15 км в посл. час ливневой дождь 8/6 500 м
[Cu Sc Ci fib]
+27.7 +21.1 66 +35 +39 очень душно 1015.0 882.3
СЗ 2 10 км ливневой дождь 8/8 450 м
[Ac Cb]
+26.0 +22.0 79 +34 +37 очень душно 1015.0 886.1
В 2 10 км гроза, ливневой дождь 8/8 450 м
[Ac Cb]
+23.0 +21.0 89 +31 +34 очень душно 1014.0 883.9
С 3 10 км мгла {гроза, дождь} 10/8 300 м
[Cu Sc Ac As]
+22.6 +21.4 89 +31 +33 очень душно 1014.0 881.4
С 2 10 км ливневой дождь 8/8 450 м
[Ac Cb]
+23.0 +18.0 73 +28 +29 душно 1014.0 883.7
В 3 10 км ливневой дождь 8/5 450 м
[Ac Cb]
+23.0 +19.0 78 +29 +29 очень душно 1014.0 883.8
В 2 12 км осадки на расстоянии {гроза} 9/4 450 м
[Cu Sc Ac As]
+22.7 +18.7 78 +29 +29 очень душно 1015.0 882.2 +31.6 0.2
ЮВ 2 10 км 5/5 450 м
[Ac]
+23.0 +19.0 78 +29 +29 очень душно 1016.0 885.5
ЮВ 2 10 км 5/2 300 м
[Ac]
+21.0 +19.0 88 +26 +26 душно 1016.0 884.7
СВ 2 10 км слаб. дождь 8/8 450 м
[Ac Ns]
+21.0 +20.0 94 +27 +27 душно 1014.0 883.0
Местоположение метеостанции Букараманга (Колумбия): широта 7.10 долгота -73.20 высота над уровнем моря 1189 м.
В архиве по умолчанию представлена погода в Букараманге за последнюю неделю. Архивные данные за месяц целиком и за предыдущие месяцы, начиная с января 2011 года, Вы можете получить, выбрав интересующий диапазон дат из раскрывающегося списка и нажав кнопку "Найти!".
*Определитесь, кто Вы:
Внимание! Время в таблицах - всемирное. Для получения местного времени необходимо прибавить поправку, которая равна -5 ч.
Некоторые строки с данными для отдельных станций могут быть выделены курсивом. Это означает, что фактические данные отсутствуют по различным причинам, а приведенные значения являются расчетными модельными данными для данного пункта наблюдений.
Смотрите также архив погоды в соседних городах и на ближайших метеорологических станциях:
Партнеры нашего сайта:      
Пояснения к столбцам:
  • Ветер - указаны скорость ветра в м/с - средняя за 10 мин, порывы в срок и между сроками (в фигурных скобках) и направление, откуда дует ветер: С - северный,
  • СВ - северо-восточный, В - восточный, ЮВ - юго-восточный, Ю - южный, ЮЗ - юго-западный, З - западный, СЗ - северо-западный.
  • Видимость - горизонтальная дальность видимости в метрах или километрах. При видимости от 1 до 10 км при отсутствии осадков обычно наблюдается дымка, при ухудшении видимости до 1 км и менее - туман. В сухую погоду видимость может ухудшаться дымом, пылью или мглою.
  • Явления - указаны атмосферные явления, наблюдавшиеся в срок или в последний час перед сроком; фигурными скобками обозначены явления, наблюдавшиеся между сроками (за 1-3 часа до срока); квадратными скобками обозначены град или гололедные отложения с указанием их диаметра в мм.
  • Облачность - указаны через наклонную черту общая и нижняя облачность в баллах и высота нижней границы облаков в метрах; квадратными скобками обозначены формы облаков: Ci - перистые, Cs - перисто-слоистые, Cc - перисто-кучевые, Ac - высококучевые, As - высокослоистые, Sc - слоисто-кучевые, Ns - слоисто-дождевые, Cu - кучевые, Cb - кучево-дождевые. Подробнее классификацию облаков см. в Атласе облаков (PDF).
  • T - Температура воздуха - температура, измеренная на высоте 2 м над землей.
  • Td - Температура точки росы - температура, при понижении до которой содержащийся в воздухе водяной пар достигнет насыщения.
  • f - Относительная влажность воздуха - влажноcть воздуха, измеренная на высоте 2 м над землей.
  • Te - Эффективная температура - температура, которую ощущает одетый по сезону человек в тени. Характеристика душности погоды. При расчете учитывается влияние влажности воздуха и скорости ветра на теплоощущения человека.
  • Tes - Эффективная температура на солнце - температура, которую ощущает человек, с поправкой на солнечный нагрев. Характеристика знойности погоды. Зависит от высоты солнца над горизонтом, облачности и скорости ветра. Ночью, в пасмурную погоду, а также при ветре 12 м/с и более поправка равна нулю.
  • P - Атмосферное давление - приведенное к уровню моря атмосферное давление.
  • Po - Атмосферное давление - измеренное на уровне метеостанции атмосферное давление.
  • Tmin - Минимальная температура - минимум температуры воздуха на высоте 2 м над землей.
  • Tmax - Максимальная температура - максимум температуры воздуха на высоте 2 м над землей.
  • R - Количество осадков - Количество выпавших осадков за период времени, мм. При наведении курсора мыши на число - период времени, за который выпало указанное количество осадков.
  • R24 - Количество осадков - Количество выпавших осадков за 24 часа, мм.
  • S - Снежный покров - Высота снежного покрова, см. При наведении курсора мыши на число - состояние снежного покрова и степень покрытия местности в баллах.